Location: Ferintosh
(52.7647°N, 112.9692°W)
Time: 19:54:45
(UTC+00:00)

A-11 Canister half - Pass Details

Date: 26 May 2024
Orbit: 1515 x 1685 km, 47.2° (Epoch: 12 June)

Event Time Altitude Azimuth Distance (km) Brightness Sun altitude
Rises 07:27:40 0° 198° (SSW) 4,807 - -16.0°
Reaches altitude 10° 07:31:31 10° 186° (S) 3,797 - -16.0°
Exits shadow 07:35:06 20° 167° (SSE) 3,071 10.0 -16.0°
Maximum altitude 07:38:45 25° 137° (SE) 2,760 10.0 -16.0°
Drops below altitude 10° 07:45:49 10° 87° (E) 3,714 11.1 -15.9°
Sets 07:49:31 0° 75° (ENE) 4,683 11.8 -15.9°
